Weather History for KFAR - May, 2013

Change the Weather History Date:

Thursday, May 23, 2013

  Actual Average Record
Temperature  
Mean Temperature 58 °F 59 °F  
Max Temperature 70 °F 71 °F 92 °F (1928)
Min Temperature 46 °F 48 °F 31 °F (1924)
Degree Days  
Heating Degree Days 7 7  
Month to date heating degree days 232 227  
Since 1 July heating degree days 9224 8683  
Cooling Degree Days 0 1  
Month to date cooling degree days 21 19  
Year to date cooling degree days 21 22  
Growing Degree Days 8 (Base 50)    
Moisture  
Dew Point 34 °F    
Average Humidity 46    
Maximum Humidity 71    
Minimum Humidity 21    
Precipitation  
Precipitation 0.00 in 0.10 in 1.50 in (1962)
Month to date precipitation 2.42 2.01  
Year to date precipitation 8.16 6.01  
Snow  
Snow 0.00 in 0.00 in T in (1924)
Month to date snowfall 0.0 0.0  
Since 1 July snowfall 68.4 50.4  
Snow Depth 0.00 in    
Sea Level Pressure  
Sea Level Pressure 30.25 in    
Wind  
Wind Speed 9 mph (East)    
Max Wind Speed 16 mph    
Max Gust Speed 22 mph    
Visibility 10 miles    
Events      
T = Trace of Precipitation, MM = Missing Value Source: NWS Daily Summary

Daily Weather History Graph

Daily Weather History Graph

Search for Another Location

Airport or City:

Trip Planner

Search our weather history database for the weather conditions in past years. The results will help you decide how hot, cold, wet, or windy it might be!

Date:

Astronomy

May. 23, 2013 Rise Set
Actual Time 5:43 AM CDT 9:05 PM CDT
Civil Twilight 5:06 AM CDT 9:42 PM CDT
Nautical Twilight 4:17 AM CDT 10:32 PM CDT
Astronomical Twilight 3:14 AM CDT 11:35 PM CDT
Moon 7:34 PM CDT (5/23) 4:36 AM CDT (5/23)
Length of Visible Light 16h 36m
Length of Day
15h 22m
Waxing Gibbous, 97% of the Moon is Illuminated
May 23
Waxing Gibbous
May 24
Full
May 31
Last Quarter
Jun 8
New
Jun 16
First Quarter

Hourly Weather History & Observations

Time (CDT) Temp. Windchill Dew Point Humidity Pressure Visibility Wind Dir Wind Speed Gust Speed Precip Events Conditions
12:53 AM 55.9 °F - 43.0 °F 62% 30.12 in 10.0 mi NNE 12.7 mph - N/A   Clear
1:53 AM 54.0 °F - 42.1 °F 64% 30.14 in 10.0 mi NE 11.5 mph - N/A   Clear
2:53 AM 52.0 °F - 41.0 °F 66% 30.17 in 10.0 mi NE 10.4 mph - N/A   Clear
3:53 AM 50.0 °F - 39.9 °F 68% 30.19 in 10.0 mi NE 11.5 mph - N/A   Clear
4:53 AM 48.0 °F - 39.0 °F 71% 30.22 in 10.0 mi NE 10.4 mph - N/A   Clear
5:53 AM 46.0 °F 41.4 °F 37.9 °F 73% 30.25 in 10.0 mi NE 9.2 mph - N/A   Clear
6:53 AM 48.9 °F - 37.9 °F 66% 30.27 in 10.0 mi NE 10.4 mph - N/A   Clear
7:53 AM 52.0 °F - 37.9 °F 59% 30.29 in 10.0 mi NE 13.8 mph - N/A   Clear
8:53 AM 55.9 °F - 39.0 °F 53% 30.30 in 10.0 mi ENE 11.5 mph - N/A   Clear
9:53 AM 59.0 °F - 39.0 °F 48% 30.32 in 10.0 mi ENE 11.5 mph - N/A   Clear
10:53 AM 61.0 °F - 33.1 °F 35% 30.31 in 10.0 mi East 6.9 mph 18.4 mph N/A   Clear
11:53 AM 63.0 °F - 30.0 °F 29% 30.31 in 10.0 mi East 8.1 mph 16.1 mph N/A   Clear
12:53 PM 64.9 °F - 32.0 °F 29% 30.30 in 10.0 mi ENE 5.8 mph - N/A   Clear
1:53 PM 66.9 °F - 28.9 °F 24% 30.30 in 10.0 mi East 10.4 mph - N/A   Clear
2:53 PM 66.9 °F - 28.0 °F 23% 30.29 in 10.0 mi Variable 3.5 mph - N/A   Clear
3:53 PM 68.0 °F - 26.1 °F 21% 30.28 in 10.0 mi SSE 11.5 mph 21.9 mph N/A   Clear
4:53 PM 69.1 °F - 28.9 °F 22% 30.26 in 10.0 mi SE 9.2 mph - N/A   Clear
5:53 PM 68.0 °F - 30.9 °F 25% 30.26 in 10.0 mi South 5.8 mph - N/A   Clear
6:53 PM 68.0 °F - 27.0 °F 21% 30.25 in 10.0 mi SE 10.4 mph - N/A   Clear
7:53 PM 66.9 °F - 33.1 °F 28% 30.24 in 10.0 mi SSE 5.8 mph - N/A   Clear
8:53 PM 64.0 °F - 27.0 °F 25% 30.25 in 10.0 mi SSE 8.1 mph - N/A   Clear
9:53 PM 60.1 °F - 28.0 °F 30% 30.27 in 10.0 mi SSE 6.9 mph - N/A   Clear
10:53 PM 57.9 °F - 28.0 °F 32% 30.28 in 10.0 mi SSE 6.9 mph - N/A   Clear
11:53 PM 55.9 °F - 28.0 °F 34% 30.28 in 10.0 mi SE 6.9 mph - N/A   Clear